Simultaneous Nadir Overpasses (SNOs) Predictions

Prediction of SNOs between NOAA-19 and TERRA Satellite Orbit:

Table of predicted SNOs for the next 14.0 days since TLE Epoch: 10/26/2019
Index Date (NOAA-19) Time (NOAA-19) Lat,Lon (NOAA-19) SZA (NOAA-19 ) Date (TERRA) Time (TERRA) Lat,Lon (TERRA) SZA (TERRA ) Distance(km) Time Diff (sec)
1 10/26/2019 03:12:41 78.86, 156.24 92.42 10/26/2019 03:11:37 78.85, 156.30 92.39 1.87 64
2 10/28/2019 07:55:04 78.90, 85.42 93.18 10/28/2019 07:55:54 78.88, 85.41 93.18 2.54 50
3 10/28/2019 08:46:08 -78.86,-107.05 86.82 10/28/2019 08:45:22 -78.85,-107.13 86.86 2.36 46
4 10/30/2019 13:28:31 -78.90,-177.84 86.07 10/30/2019 13:29:38 -78.93,-177.76 86.02 3.30 67
5 10/30/2019 14:19:26 78.89, -10.47 93.94 10/30/2019 14:19:05 78.88, -10.41 93.93 1.78 21
6 11/01/2019 19:52:53 -78.88, 86.30 85.34 11/01/2019 19:52:50 -78.89, 86.22 85.34 1.88 3
7 11/04/2019 01:26:11 78.92,-177.19 95.38 11/04/2019 01:26:33 78.92,-177.03 95.41 3.50 22
8 11/04/2019 02:17:15 -78.87, -9.58 84.62 11/04/2019 02:16:01 -78.90, -9.54 84.62 3.45 74
9 11/06/2019 06:59:38 -78.91, -80.42 83.94 11/06/2019 07:00:19 -78.90, -80.57 83.95 3.35 41
10 11/06/2019 07:50:33 78.90, 86.91 96.07 11/06/2019 07:49:45 78.89, 86.99 96.05 2.22 48
11 11/08/2019 12:32:56 78.94, 16.07 96.73 11/08/2019 12:34:02 78.94, 16.20 96.76 2.81 66




NCC Satellite Simultaneous Nadir Overpasses (SNOs) Prediction Service
